Back to catalog

SPEKTR R

AliveScienceHEO
NORAD 37755·PAYLOAD·🇷🇺 Russia

Launched Jul 18, 2011 from Baikonur Cosmodrome

Loading…

Next Passes (next 24 hours)

TLE

StaleSource: Space-Track

Epoch: Oct 1, 2025, 20:46 UTC

1 37755U 11037A   25274.86529625 -.00000320  00000-0  00000-0 0  9998
2 37755  86.2960 317.6811 6943482 350.5069   4.1793  0.11323121  5611

Track SPEKTR R in real time with AllMySat

Download on the App Store